Temperature
25 23 23 24 24 25 25 25 24 24 25 24 23 23 22 22 22 21 21 21 21 21 22 22 21 21 21 21 20 20 20 20 20 19 19 19 19 19 19 18 18 18 18 18
23 23 24 25 25 25 25 24 24 24 25 24 23 23 23 22 22 22 21 21 21 21 22 22 22 21 21 21 21 20 20 20 20 20 20 19 19 19 19 19 18 18 18 18
24 24 25 25 25 25 24 24 24 24 24 24 24 23 22 22 22 22 22 22 22 22 22 22 22 22 22 21 21 21 20 20 20 20 19 19 19 19 19 19 19 19 18 18
24 24 25 25 25 25 24 24 24 24 23 22 23 22 22 21 21 21 22 22 22 22 22 22 22 22 22 22 21 21 21 21 20 20 20 19 19 19 19 19 19 19 18 18
24 25 25 25 25 24 24 25 24 24 23 22 22 22 21 21 21 21 21 22 22 22 22 23 23 23 22 22 22 21 21 21 20 20 20 20 20 20 19 19 19 19 19 18
24 24 25 25 25 25 25 23 22 19 20 21 21 21 21 20 21 21 21 22 22 22 22 23 23 23 22 22 22 22 21 21 20 20 20 20 20 20 19 19 19 19 19 19
24 24 24 25 25 25 23 22 21 22 20 20 21 21 20 21 21 21 22 22 22 22 22 22 22 22 22 22 22 22 21 21 21 20 20 20 20 20 20 19 19 19 19 19
23 23 24 24 24 24 22 22 21 22 21 20 20 20 21 21 21 22 22 22 22 23 23 23 23 23 23 22 22 22 21 21 21 20 20 20 20 20 20 19 19 19 19 19
21 22 24 24 24 24 22 21 21 19 20 20 20 20 20 21 21 21 21 22 22 22 22 22 23 23 23 22 22 22 22 21 21 21 20 20 20 20 20 19 19 19 19 19
21 22 22 23 24 23 22 19 18 18 19 20 21 21 20 21 21 20 20 20 21 22 22 22 22 22 22 22 22 22 22 21 21 21 20 20 20 20 20 19 19 19 19 19
20 21 22 22 22 22 21 20 18 16 18 19 20 20 21 20 20 20 19 20 21 22 22 22 22 22 22 22 22 22 21 21 21 21 20 20 20 20 19 19 19 19 19 19
18 17 19 20 21 21 21 20 18 20 19 17 18 20 21 20 19 19 19 20 21 21 22 22 22 22 22 22 22 21 21 21 21 21 20 20 20 20 19 19 19 19 19 19
18 17 19 20 21 20 20 20 18 17 16 16 18 20 20 18 19 19 19 19 20 21 21 22 22 22 22 22 22 21 21 21 21 21 20 20 20 19 19 19 19 19 19 19
17 16 18 19 19 19 20 20 19 18 17 17 18 19 19 18 18 18 18 19 19 20 20 21 21 21 21 21 21 21 21 21 20 20 20 20 20 19 19 19 19 19 18 18
16 16 17 17 18 19 20 20 19 19 18 18 19 19 18 18 17 17 18 18 19 19 20 20 20 21 21 21 21 21 21 20 20 20 20 19 19 19 19 19 18 18 18 18
14 16 17 18 19 19 19 20 20 19 19 19 19 18 17 17 17 17 17 18 18 18 19 19 20 20 20 20 20 20 20 20 20 20 19 19 19 19 18 18 18 18 18 18
13 15 16 16 17 19 18 19 19 18 18 18 18 18 16 16 16 17 17 17 18 18 18 19 19 20 20 20 20 20 20 20 19 19 19 19 18 18 18 18 18 17 17 17
13 13 13 14 17 18 18 18 18 18 17 17 17 16 16 16 17 17 17 17 18 18 18 19 19 19 19 19 19 19 19 19 19 19 18 18 18 18 18 17 17 17 17 17
12 13 12 13 15 16 17 18 17 17 17 16 16 16 16 16 16 16 17 17 18 18 18 19 19 19 19 19 19 18 18 18 18 18 18 18 18 17 17 17 17 17 16 16
11 12 12 13 15 16 17 17 17 17 16 16 15 15 15 15 15 15 17 17 17 18 18 18 18 18 18 18 18 18 18 18 18 17 17 17 17 17 16 16 16 16 16 16
13 12 13 13 14 15 16 16 17 17 16 16 15 15 15 15 15 16 16 16 17 17 17 17 17 17 18 18 17 18 18 17 17 17 17 16 16 16 16 16 16 16 15 15
13 12 12 12 13 14 15 15 15 15 15 15 15 15 15 15 16 16 16 16 16 16 16 16 17 17 17 17 17 17 17 17 17 17 16 16 16 15 15 15 15 15 15 15
11 12 11 12 13 14 14 15 16 16 15 16 16 15 15 15 15 15 15 15 15 16 16 16 16 16 16 16 16 17 17 17 16 16 15 15 15 15 15 15 15 14 14 14
11 11 11 11 12 13 14 15 16 16 16 16 16 15 15 15 15 15 15 15 15 15 15 15 15 15 16 16 16 16 16 16 15 15 15 15 14 14 14 14 14 14 14 14
11 11 11 11 12 13 14 15 15 15 15 15 15 15 15 15 15 15 14 14 14 15 15 15 15 15 15 15 15 15 15 15 15 14 14 14 14 14 14 13 13 13 13 13
10 11 11 11 12 12 13 14 15 15 15 15 15 14 14 14 14 14 14 14 14 14 14 14 14 14 14 14 14 14 14 14 14 14 14 13 13 13 13 13 13 13 12 12
Wind_Speed
3 4 3 7 7 5 3 3 4 6 3 3 4 4 5 8 8 8 9 9 10 10 8 7 8 8 8 7 7 7 7 6 6 4 4 4 3 3 3 4 6 8 8 8
4 3 7 4 4 4 4 2 4 4 0 3 2 3 3 7 11 10 10 10 11 9 7 8 8 9 9 9 8 8 8 7 7 6 4 3 3 3 3 3 4 7 8 9
6 6 3 4 3 3 3 5 6 4 2 2 2 4 2 3 4 5 7 7 8 10 10 9 10 10 10 10 10 10 9 8 7 6 4 3 3 2 2 2 3 4 7 8
5 5 2 3 4 5 5 7 6 3 2 2 2 2 6 4 3 5 7 8 9 9 9 9 10 11 11 12 10 9 9 8 7 7 6 6 5 4 4 3 3 3 5 6
5 4 4 5 7 7 7 1 3 2 4 1 1 2 7 2 4 8 10 10 9 9 10 10 11 11 11 11 10 9 8 8 7 7 8 7 5 4 3 3 4 3 3 4
5 3 4 6 4 5 4 6 7 6 5 0 4 4 6 4 6 6 7 9 9 9 9 9 8 7 7 8 8 9 8 7 7 7 7 8 7 6 5 4 4 3 3 3
4 4 3 2 1 2 5 6 4 4 3 5 2 3 7 7 6 6 7 8 7 9 9 9 9 9 8 9 9 8 9 8 7 8 8 8 7 7 7 6 5 5 4 4
1 5 4 2 5 5 4 9 8 6 5 5 1 5 7 6 5 4 4 4 5 8 9 10 10 10 9 9 8 8 9 8 8 9 8 7 6 6 5 6 5 6 5 5
4 6 5 3 3 7 6 4 6 7 3 1 5 6 7 3 3 1 0 2 4 5 6 8 8 9 9 9 9 9 8 8 8 8 7 6 7 7 6 6 6 5 5 5
5 4 6 4 3 3 5 8 6 6 6 4 5 5 5 6 5 3 2 2 2 3 4 6 7 8 8 8 8 8 8 9 8 7 7 7 6 6 6 6 6 5 5 4
3 3 5 3 2 3 3 4 5 5 5 7 5 7 6 8 7 5 5 3 3 3 4 4 5 6 6 6 7 7 7 7 7 7 6 6 6 6 6 6 6 5 4 5
2 4 2 5 4 2 4 5 6 5 4 5 5 8 4 4 5 4 4 2 1 1 2 3 3 4 5 6 7 7 8 8 8 8 7 7 6 6 6 6 6 5 5 5
2 4 2 6 5 4 2 2 4 5 5 5 5 7 2 1 1 2 2 1 1 1 1 2 2 3 3 4 5 6 7 8 8 8 8 7 7 7 7 7 5 5 5 5
3 3 5 7 7 3 2 2 3 5 4 5 8 7 5 3 2 2 1 2 2 2 2 2 2 2 3 3 4 5 5 6 7 7 7 7 8 7 7 6 5 5 5 5
4 2 3 5 6 4 5 5 4 6 8 8 8 8 8 6 5 3 3 3 3 2 2 2 2 2 2 2 2 3 4 5 6 6 6 7 6 6 5 5 5 4 4 5
3 1 1 3 4 4 5 6 5 5 4 5 4 6 4 2 1 2 2 3 3 3 3 3 3 2 1 2 2 3 3 4 4 5 5 4 4 4 5 5 4 4 4 4
1 2 1 4 6 3 5 6 5 2 2 4 6 6 2 2 3 5 5 5 4 4 3 4 3 3 2 2 3 3 3 3 4 4 4 4 4 4 4 5 4 4 4 4
4 4 3 1 2 5 7 2 2 3 1 2 2 3 5 5 4 2 3 4 3 2 2 2 2 2 1 1 1 2 3 3 3 3 3 3 3 3 3 4 4 3 3 3
5 6 4 3 2 6 6 2 1 2 2 1 1 2 1 2 3 2 1 1 2 2 2 2 3 3 2 1 2 2 2 2 3 3 2 2 3 2 2 3 3 3 3 2
3 4 4 3 3 6 6 4 3 2 3 2 1 2 2 3 2 3 2 1 1 1 1 1 2 2 2 1 2 3 3 2 2 1 1 2 2 3 3 3 2 2 2 3
2 2 3 4 4 6 6 5 1 2 5 2 2 2 3 3 4 3 1 1 1 1 1 2 2 2 2 2 3 3 3 2 2 2 2 1 2 3 3 3 2 2 2 1
3 2 3 4 4 7 4 1 2 5 2 1 2 2 2 2 2 2 2 1 0 1 1 2 2 1 1 2 3 3 3 2 2 3 3 2 1 2 2 3 2 2 2 2
3 5 4 6 6 5 4 4 4 3 2 3 3 3 3 2 2 1 1 1 1 1 1 1 2 1 1 1 3 3 3 2 3 3 2 1 1 1 1 2 2 2 2 2
3 1 2 3 5 5 6 4 3 2 3 3 3 2 2 2 2 1 0 1 1 1 1 1 2 1 0 0 1 2 2 3 4 3 2 2 1 1 1 1 2 2 2 2
5 1 1 4 6 5 5 4 4 4 1 0 1 1 2 3 2 2 1 1 1 1 0 1 1 1 1 1 0 0 1 3 4 3 2 1 1 1 1 1 1 2 2 3
5 6 5 7 7 5 6 6 5 4 4 3 2 1 1 3 3 3 2 1 1 1 1 1 0 1 1 0 0 0 1 2 3 3 2 2 1 1 1 1 1 4 2 1
Wind_Direction
84 91 194 216 195 192 179 202 256 263 231 166 216 245 204 183 187 195 196 193 198 207 205 188 186 181 174 173 173 181 182 177 165 158 161 166 184 184 180 191 194 194 194 189
54 249 230 202 166 157 167 220 267 293 298 164 207 262 222 189 201 203 202 202 203 203 196 191 186 183 182 182 183 187 191 182 180 178 168 163 159 172 181 184 184 193 192 189
191 233 201 162 179 177 210 201 225 235 2 46 86 334 280 233 213 213 211 206 206 202 200 198 193 192 187 188 190 195 194 186 180 166 144 129 112 107 145 175 189 193 191 192
224 244 182 173 209 171 249 226 204 192 117 291 105 263 287 248 230 222 221 210 208 204 197 197 196 196 195 196 193 191 189 185 177 166 166 168 177 190 196 185 190 188 188 189
237 211 184 209 224 181 218 188 153 150 149 65 19 163 286 320 250 242 228 218 208 200 197 198 201 202 200 193 190 189 184 185 179 175 176 178 189 193 172 160 176 190 188 189
243 240 202 215 225 183 162 75 59 52 80 191 241 175 271 245 232 245 230 222 211 198 195 196 197 192 193 188 186 185 181 188 184 183 185 186 188 181 171 177 185 195 194 195
312 298 264 177 84 50 99 95 35 359 15 246 252 181 244 253 241 232 229 218 206 194 189 189 189 188 189 188 187 184 182 190 188 192 198 197 193 186 190 192 196 196 200 207
202 288 264 202 180 186 173 146 162 196 215 263 274 222 250 265 270 248 229 205 188 188 187 191 194 192 191 189 186 183 187 190 190 197 202 198 194 195 203 201 198 202 208 214
176 253 288 255 202 149 140 168 166 143 156 214 269 276 296 291 307 323 263 160 183 186 185 191 192 193 191 190 189 185 186 191 193 198 198 198 201 201 205 204 203 207 209 210
158 242 292 300 56 41 137 143 104 128 156 219 267 258 244 253 257 259 245 212 206 175 176 188 190 191 191 190 188 182 188 194 193 191 197 202 203 206 207 200 206 207 205 204
125 180 305 16 122 209 85 96 109 123 155 167 222 257 227 219 226 223 233 237 223 193 187 186 187 186 181 177 182 185 193 198 194 191 194 195 197 199 200 205 211 207 196 188
86 127 269 271 268 230 148 151 146 157 207 179 185 254 273 207 210 201 212 225 230 194 189 176 168 166 173 181 190 193 196 199 200 193 191 193 192 193 200 210 210 202 198 195
86 101 36 339 337 2 57 124 140 130 128 161 181 253 296 18 196 197 186 180 152 144 143 123 116 135 165 180 187 194 197 198 194 188 188 189 194 199 205 210 207 200 198 200
110 113 171 209 235 255 280 244 164 137 162 200 217 236 273 276 275 280 202 160 154 151 135 128 137 152 165 170 172 177 187 189 186 183 186 191 199 203 207 204 199 198 198 203
83 148 226 246 256 243 243 252 218 194 193 196 225 219 244 242 223 214 190 157 141 154 159 162 166 172 151 144 155 167 177 180 177 175 184 198 202 197 197 202 202 194 200 211
52 147 311 295 283 264 263 267 240 224 212 219 220 246 249 230 169 166 174 169 170 190 200 198 188 167 144 154 161 160 168 178 163 167 183 187 189 195 197 203 201 195 205 211
12 128 100 275 308 344 273 253 225 207 214 192 213 234 194 167 195 201 194 187 189 201 214 208 199 195 184 182 166 165 172 163 162 172 183 185 183 191 199 197 193 199 209 205
165 137 145 234 10 230 247 275 164 159 255 261 223 211 190 193 201 198 185 177 191 215 220 200 181 167 162 151 137 139 134 138 158 168 181 194 185 186 180 176 184 198 204 208
176 151 143 146 218 273 292 289 179 179 277 316 162 158 133 127 65 10 340 167 200 223 224 192 176 157 137 135 144 119 114 117 135 158 177 185 179 178 177 183 193 190 193 207
90 119 135 148 183 232 251 294 303 120 273 289 129 149 133 104 137 251 281 307 313 46 91 123 133 121 124 151 141 128 137 135 151 169 179 171 154 167 183 189 189 180 188 212
44 68 157 182 215 257 272 299 31 159 247 265 194 186 171 184 214 224 214 300 341 59 70 99 118 137 159 150 136 139 142 177 199 149 111 125 151 167 169 166 169 169 170 167
185 176 191 161 195 250 298 32 169 227 263 217 222 209 205 220 198 171 167 199 151 128 90 100 112 128 124 131 141 156 183 195 142 118 115 119 153 159 152 155 160 148 140 148
207 198 197 195 218 253 285 260 263 224 241 248 229 232 198 195 196 188 184 266 312 157 122 111 126 134 128 151 155 177 199 147 120 116 119 116 100 120 132 144 146 139 149 171
284 183 177 258 267 281 299 302 303 269 238 238 222 219 198 202 201 195 207 296 323 314 123 116 124 137 145 56 143 184 172 136 127 134 132 126 103 78 91 119 151 167 179 183
249 237 226 263 277 301 304 305 305 312 304 306 276 205 192 175 172 179 196 240 299 315 19 132 157 186 225 228 194 138 133 136 141 142 145 139 132 129 106 88 171 191 207 203
223 204 208 240 245 239 271 290 301 296 274 246 208 238 202 178 192 190 195 218 264 273 246 165 132 291 275 234 246 89 124 142 144 148 171 183 167 152 152 135 46 45 73 55
Height
1468 1475 1481 1478 1477 1478 1481 1486 1490 1484 1476 1480 1483 1482 1480 1480 1481 1483 1484 1486 1487 1489 1492 1495 1498 1500 1503 1505 1507 1509 1511 1513 1515 1517 1519 1520 1522 1524 1526 1528 1530 1532 1534 1536
1474 1478 1471 1470 1472 1476 1481 1487 1488 1482 1476 1479 1483 1482 1478 1478 1478 1479 1481 1483 1484 1487 1490 1492 1495 1498 1500 1503 1505 1508 1510 1512 1514 1516 1518 1520 1522 1524 1526 1527 1529 1531 1533 1535
1474 1471 1466 1469 1473 1478 1481 1485 1484 1484 1480 1479 1482 1487 1482 1478 1478 1479 1480 1481 1482 1484 1486 1489 1492 1494 1497 1500 1502 1505 1508 1510 1512 1514 1517 1519 1521 1522 1524 1526 1528 1530 1532 1533
1469 1465 1466 1469 1472 1475 1483 1474 1476 1479 1488 1495 1489 1505 1487 1480 1479 1477 1477 1477 1478 1481 1483 1486 1488 1491 1493 1496 1500 1503 1506 1508 1510 1513 1515 1517 1518 1520 1522 1524 1527 1529 1530 1532
1468 1463 1465 1469 1468 1469 1473 1468 1473 1478 1487 1496 1494 1503 1494 1482 1482 1476 1473 1473 1474 1476 1479 1482 1484 1487 1490 1494 1497 1501 1504 1506 1509 1511 1513 1515 1517 1519 1521 1523 1525 1527 1528 1530
1463 1459 1460 1461 1460 1463 1465 1473 1480 1489 1497 1508 1498 1503 1500 1486 1477 1471 1469 1469 1471 1473 1476 1478 1481 1485 1488 1491 1494 1497 1500 1503 1506 1509 1511 1512 1514 1517 1519 1521 1523 1525 1526 1528
1468 1462 1458 1457 1462 1464 1468 1486 1506 1508 1517 1513 1496 1499 1495 1473 1468 1466 1465 1465 1467 1469 1472 1475 1478 1481 1484 1488 1491 1494 1497 1500 1503 1506 1508 1510 1512 1515 1517 1519 1521 1522 1524 1525
1479 1478 1460 1457 1460 1467 1471 1480 1504 1515 1518 1511 1499 1500 1483 1467 1464 1463 1462 1463 1464 1466 1468 1471 1474 1478 1481 1485 1488 1491 1494 1497 1500 1502 1505 1507 1510 1512 1515 1517 1519 1520 1521 1523
1478 1476 1457 1454 1453 1459 1471 1479 1479 1498 1506 1510 1504 1493 1477 1464 1462 1461 1460 1461 1462 1464 1466 1469 1473 1476 1479 1482 1485 1488 1491 1494 1496 1499 1502 1504 1507 1509 1511 1514 1516 1517 1519 1521
1467 1474 1462 1456 1454 1457 1462 1472 1487 1499 1513 1516 1503 1495 1487 1470 1465 1462 1461 1460 1461 1463 1465 1468 1471 1474 1477 1480 1483 1485 1489 1491 1493 1496 1498 1501 1503 1506 1508 1510 1512 1514 1516 1518
1465 1474 1469 1463 1465 1467 1468 1475 1484 1496 1498 1510 1511 1497 1467 1465 1462 1462 1460 1460 1460 1462 1464 1467 1469 1472 1475 1478 1480 1482 1486 1488 1490 1492 1495 1497 1499 1502 1505 1507 1508 1510 1512 1513
1468 1476 1481 1470 1460 1458 1461 1469 1479 1490 1497 1500 1502 1490 1459 1459 1458 1458 1459 1460 1461 1462 1464 1466 1468 1470 1473 1475 1478 1479 1482 1484 1487 1489 1491 1493 1496 1498 1501 1503 1504 1506 1508 1509
1468 1478 1486 1480 1474 1466 1466 1467 1472 1480 1491 1500 1500 1485 1458 1457 1457 1458 1458 1459 1460 1461 1463 1464 1466 1468 1470 1473 1474 1476 1478 1481 1483 1485 1487 1489 1492 1495 1497 1499 1501 1503 1504 1506
1465 1478 1483 1486 1480 1472 1469 1467 1469 1477 1489 1492 1486 1475 1463 1460 1459 1458 1458 1458 1460 1461 1462 1463 1465 1466 1468 1470 1471 1474 1476 1478 1480 1482 1483 1485 1488 1490 1492 1495 1497 1498 1500 1501
1466 1477 1475 1473 1468 1467 1466 1465 1465 1469 1472 1477 1471 1469 1462 1459 1458 1458 1458 1458 1459 1460 1461 1462 1463 1465 1466 1468 1470 1472 1473 1475 1476 1478 1480 1482 1485 1487 1489 1491 1493 1494 1496 1497
1470 1475 1473 1472 1466 1465 1464 1461 1461 1461 1463 1464 1464 1464 1457 1457 1457 1457 1457 1458 1458 1458 1459 1460 1461 1463 1464 1466 1468 1469 1471 1472 1474 1475 1477 1479 1481 1484 1485 1487 1489 1490 1492 1493
1474 1476 1479 1480 1472 1465 1470 1461 1459 1460 1459 1460 1463 1460 1456 1456 1456 1455 1456 1456 1456 1457 1458 1459 1460 1461 1463 1464 1466 1467 1468 1470 1472 1473 1475 1476 1478 1479 1481 1483 1485 1486 1487 1489
1473 1477 1483 1484 1477 1480 1467 1454 1454 1456 1457 1456 1455 1454 1454 1453 1453 1454 1454 1455 1455 1456 1456 1457 1458 1459 1461 1462 1464 1465 1467 1468 1469 1470 1472 1474 1474 1476 1478 1479 1480 1482 1484 1484
1468 1474 1483 1487 1485 1475 1462 1454 1455 1457 1458 1454 1454 1453 1453 1453 1453 1454 1454 1455 1455 1455 1455 1456 1457 1458 1459 1460 1462 1463 1465 1466 1468 1468 1469 1470 1472 1474 1475 1476 1477 1478 1480 1481
1468 1471 1480 1484 1481 1480 1464 1453 1451 1454 1459 1453 1452 1452 1453 1453 1458 1456 1453 1454 1454 1454 1455 1456 1456 1457 1458 1459 1461 1462 1462 1464 1465 1466 1467 1468 1469 1471 1472 1473 1475 1476 1476 1477
1473 1475 1478 1481 1479 1470 1457 1452 1450 1463 1459 1452 1451 1451 1452 1453 1454 1453 1452 1453 1453 1453 1454 1455 1455 1456 1457 1458 1459 1460 1460 1462 1463 1464 1465 1467 1468 1469 1469 1471 1472 1473 1474 1474
1472 1475 1477 1479 1479 1472 1454 1452 1455 1455 1450 1450 1450 1450 1451 1451 1451 1451 1451 1451 1451 1452 1453 1453 1454 1454 1455 1456 1457 1457 1459 1460 1461 1462 1463 1465 1466 1466 1467 1468 1469 1469 1470 1471
1470 1469 1469 1470 1467 1457 1453 1452 1451 1450 1449 1449 1449 1449 1449 1449 1449 1450 1450 1451 1451 1451 1451 1452 1453 1453 1454 1455 1455 1456 1457 1458 1459 1461 1462 1463 1463 1464 1465 1465 1466 1467 1468 1469
1466 1464 1465 1464 1458 1454 1452 1450 1449 1449 1448 1447 1447 1447 1448 1448 1448 1448 1449 1450 1450 1450 1450 1451 1451 1451 1452 1453 1454 1455 1456 1456 1457 1459 1460 1461 1461 1462 1462 1463 1463 1464 1465 1465
1464 1463 1463 1461 1456 1452 1450 1449 1448 1447 1446 1446 1446 1446 1446 1446 1446 1447 1448 1448 1448 1449 1449 1450 1450 1450 1451 1451 1452 1453 1454 1454 1455 1456 1457 1458 1459 1460 1460 1461 1462 1462 1463 1463
1460 1460 1460 1458 1453 1452 1449 1448 1447 1446 1444 1443 1443 1444 1445 1445 1445 1446 1446 1447 1447 1448 1448 1448 1448 1449 1449 1450 1450 1451 1452 1453 1453 1454 1455 1456 1457 1458 1458 1458 1459 1460 1461 1461